User: anonymous   Login
Location: Tel Aviv
(32.0670°N, 34.7670°E)
Time: 09:22:56
(UTC+03:00)
Language:

Vanguard 1 Rocket - Orbit

View from above orbital plane
View from above orbital plane
View from above satellite
View from above satellite

Ground track
Ground track

The orbit data is extracted from the following two-line orbital elements,

1 00016U 58002A   24110.25452867  .00001291  00000-0  18060-2 0  9999
2 00016  34.2638  66.4734 2023997  29.2572 340.7545 10.49194181606024
Epoch (UTC): 19 April 2024 06:06:31
Eccentricity: 0.2023997
inclination: 34.2638°
perigee height: 652 km
apogee height: 4219 km
right ascension of ascending node: 66.4734°
argument of perigee: 29.2572°
revolutions per day: 10.49194181
mean anomaly at epoch: 340.7545°
orbit number at epoch: 60602

The dashed part of the orbit path shows where the satellite is in the earth's shadow,  

DLR